Nashville, TN

9:05 PM CDT on July 20, 2019 (GMT -0500)
Nashville International

Weather History for KBNA - May, 2019

Change the Weather History Date:

Tuesday, May 28, 2019

  Actual Average Record
Temperature  
Mean Temperature 82 °F 71 °F  
Max Temperature 93 °F 81 °F 96 °F (1911)
Min Temperature 72 °F 60 °F 40 °F (1961)
Degree Days  
Heating Degree Days 0    
Month to date heating degree days 27  
Since 1 July heating degree days 3220  
Cooling Degree Days 18    
Month to date cooling degree days 232  
Year to date cooling degree days 291  
Growing Degree Days 32 (Base 50)    
Moisture  
Dew Point 65 °F    
Average Humidity 57    
Maximum Humidity 76    
Minimum Humidity 37    
Precipitation  
Precipitation 0.00 in 0.16 in 3.50 in (1978)
Month to date precipitation 1.58 5.00  
Year to date precipitation 29.46 20.80  
Sea Level Pressure  
Sea Level Pressure 29.87 in    
Wind  
Wind Speed 6 mph ()    
Max Wind Speed 18 mph    
Max Gust Speed 24 mph    
Visibility 10.0 miles    
Events      
T = Trace of Precipitation, MM = Missing Value Source: Averaged Metar Reports

Daily Weather History Graph

Daily Weather History Graph

Search for Another Location

Airport or City:

Astronomy

May. 28, 2019 Rise Set
Actual Time 5:32 AM CDT 7:55 PM CDT
Civil Twilight 5:03 AM CDT 8:25 PM CDT
Nautical Twilight 4:26 AM CDT 9:01 PM CDT
Astronomical Twilight 3:47 AM CDT 9:41 PM CDT
Moon 2:30 AM CDT (5/28) 2:18 PM CDT (5/28)
Length of Visible Light 15h 22m
Length of Day
14h 22m
Waning Crescent, 31% of the Moon is Illuminated
May 28
Waning Crescent
Jun 3
New
Jun 10
First Quarter
Jun 17
Full
Jun 25
Last Quarter

Hourly Weather History & Observations

Time (CDT) Temp. Heat Index Dew Point Humidity Pressure Visibility Wind Dir Wind Speed Gust Speed Precip Events Conditions
12:53 AM 79.0 °F - 64.9 °F 62% 29.89 in 10.0 mi SSW 5.8 mph - N/A   Clear
1:53 AM 75.0 °F - 64.9 °F 71% 29.88 in 10.0 mi South 3.5 mph - N/A   Clear
2:53 AM 73.9 °F - 64.9 °F 73% 29.89 in 10.0 mi South 3.5 mph - N/A   Clear
3:53 AM 73.0 °F - 64.9 °F 76% 29.90 in 10.0 mi SSW 5.8 mph - N/A   Clear
4:53 AM 73.0 °F - 64.9 °F 76% 29.91 in 10.0 mi SSW 5.8 mph - N/A   Clear
5:53 AM 73.0 °F - 64.9 °F 76% 29.92 in 10.0 mi SSW 5.8 mph - N/A   Scattered Clouds
6:53 AM 75.9 °F - 66.0 °F 71% 29.93 in 10.0 mi South 5.8 mph - N/A   Partly Cloudy
7:53 AM 80.1 °F 82.1 °F 66.0 °F 62% 29.93 in 10.0 mi SW 9.2 mph - N/A   Partly Cloudy
8:53 AM 82.0 °F 84.5 °F 66.9 °F 60% 29.93 in 10.0 mi WSW 10.4 mph - N/A   Partly Cloudy
9:53 AM 82.0 °F 84.5 °F 66.9 °F 60% 29.92 in 10.0 mi SW 6.9 mph - N/A   Mostly Cloudy
10:53 AM 88.0 °F 90.7 °F 66.9 °F 49% 29.91 in 10.0 mi SW 8.1 mph - N/A   Mostly Cloudy
11:53 AM 87.1 °F 88.9 °F 64.9 °F 48% 29.90 in 10.0 mi West 11.5 mph 19.6 mph N/A   Scattered Clouds
12:53 PM 90.0 °F 91.3 °F 64.0 °F 42% 29.88 in 10.0 mi SW 15.0 mph 21.9 mph N/A   Scattered Clouds
1:53 PM 91.9 °F 93.3 °F 64.0 °F 39% 29.87 in 10.0 mi SW 13.8 mph 18.4 mph N/A   Scattered Clouds
2:53 PM 91.9 °F 92.5 °F 62.1 °F 37% 29.86 in 10.0 mi WSW 8.1 mph 17.3 mph N/A   Mostly Cloudy
3:53 PM 91.9 °F 92.5 °F 62.1 °F 37% 29.83 in 10.0 mi SW 8.1 mph 18.4 mph N/A   Mostly Cloudy
4:53 PM 91.9 °F 94.1 °F 64.9 °F 41% 29.83 in 10.0 mi WSW 8.1 mph - N/A   Mostly Cloudy
5:53 PM 89.1 °F 91.3 °F 66.0 °F 46% 29.82 in 10.0 mi WSW 8.1 mph - N/A   Mostly Cloudy
6:53 PM 88.0 °F 90.3 °F 66.0 °F 48% 29.82 in 10.0 mi Variable 5.8 mph - N/A   Mostly Cloudy
7:53 PM 86.0 °F 88.2 °F 66.0 °F 51% 29.82 in 10.0 mi SW 8.1 mph - N/A   Mostly Cloudy
8:53 PM 84.0 °F 86.5 °F 66.9 °F 56% 29.83 in 10.0 mi SW 5.8 mph - N/A   Scattered Clouds
9:53 PM 82.0 °F 84.5 °F 66.9 °F 60% 29.85 in 10.0 mi SSW 4.6 mph - N/A   Partly Cloudy
10:53 PM 80.1 °F 82.3 °F 66.9 °F 64% 29.84 in 10.0 mi South 4.6 mph - N/A   Partly Cloudy
11:53 PM 80.1 °F 82.1 °F 66.0 °F 62% 29.83 in 10.0 mi SSW 5.8 mph - N/A   Partly Cloudy